sat.trackr.live / text

‹ back to catalog

UNKNOWN

NORAD 81228

UNKNOWN UNKNOWN UNKNOWN

§ Identity

Operator
Country
Launch date
Launch site
Launch vehicle
Mass (kg)
RCS (m²)

External: N2YO · Heavens-Above

§ Orbital elements

Epoch: 2026-05-21T02:11:30.928416Z

Period
99.81 min
Inclination
70.5204°
Eccentricity
0.0057794
Mean motion
14.42754319 rev/d
Perigee alt
708.2 km
Apogee alt
790.6 km
Semi-major
7,127.5 km
B*
1.4723e-3
RAAN
278.4992°
Arg perigee
126.1493°
Mean anomaly
234.5008°
Rev number
64,906

§ Raw data

UNKNOWN1 81228U          26141.09133019  .00004956  00000+0  14723-2 0  99932 81228  70.5204 278.4992 0057794 126.1493 234.5008 14.42754319649067

JSON: /api/v1/satellites/81228 · /tle

For live sub-satellite position, see the globe view (requires WebGL).

§ Visibility from observer

Set your observer location to see the next 7 days of passes ≥ 10°. The values pass through the URL so the page stays shareable.

No JS? Fill the form by hand. The geolocation button needs JavaScript.